Time,TemperatureF,DewpointF,PressureIn,WindDirection,WindDirectionDegrees,WindSpeedMPH,WindSpeedGustMPH,Humidity,HourlyPrecipIn,Conditions,Clouds,dailyrainin,SoftwareType,DateUTC
2013-03-31 00:03:00,33.0,-99.9,30.07,WNW,292,0.0,1.0,71,0.00,,,0.00,,2013-03-31 04:03:00,
2013-03-31 00:13:00,33.0,25.0,30.07,WNW,292,0.0,1.0,71,0.00,,,0.00,,2013-03-31 04:13:00,
2013-03-31 00:23:00,33.0,25.0,30.07,WNW,292,0.0,1.0,71,0.00,,,0.00,,2013-03-31 04:23:00,
2013-03-31 00:33:00,33.0,25.0,30.07,West,260,0.0,1.0,71,0.00,,,0.00,,2013-03-31 04:33:00,
2013-03-31 00:42:00,33.0,25.0,30.07,West,260,0.0,1.0,71,0.00,,,0.00,,2013-03-31 04:42:00,
2013-03-31 00:53:00,33.0,25.0,30.07,West,260,0.0,1.0,71,0.00,,,0.00,,2013-03-31 04:53:00,
2013-03-31 01:02:00,33.0,25.0,30.08,WNW,292,0.0,0.0,71,0.00,,,0.00,,2013-03-31 05:02:00,
2013-03-31 01:13:00,33.0,25.0,30.08,WNW,292,0.0,0.0,71,0.00,,,0.00,,2013-03-31 05:13:00,
2013-03-31 01:22:00,33.0,25.0,30.08,WNW,292,0.0,0.0,71,0.00,,,0.00,,2013-03-31 05:22:00,
2013-03-31 01:32:00,32.0,24.0,30.09,WNW,292,0.0,0.0,73,0.00,,,0.00,,2013-03-31 05:32:00,
2013-03-31 01:42:00,32.0,24.0,30.09,WNW,292,0.0,0.0,73,0.00,,,0.00,,2013-03-31 05:42:00,
2013-03-31 01:53:00,32.0,24.0,30.09,WNW,292,0.0,0.0,73,0.00,,,0.00,,2013-03-31 05:53:00,
2013-03-31 02:02:00,31.0,23.0,30.09,WNW,292,0.0,0.0,72,0.00,,,0.00,,2013-03-31 06:02:00,
2013-03-31 02:12:00,31.0,23.0,30.09,WNW,292,0.0,0.0,72,0.00,,,0.00,,2013-03-31 06:12:00,
2013-03-31 02:23:00,31.0,23.0,30.09,WNW,292,0.0,0.0,72,0.00,,,0.00,,2013-03-31 06:23:00,
2013-03-31 02:33:00,30.0,23.0,30.08,WNW,292,0.0,0.0,74,0.00,,,0.00,,2013-03-31 06:33:00,
2013-03-31 02:42:00,30.0,23.0,30.08,WNW,292,0.0,0.0,74,0.00,,,0.00,,2013-03-31 06:42:00,
2013-03-31 02:53:00,30.0,23.0,30.08,WNW,292,0.0,0.0,74,0.00,,,0.00,,2013-03-31 06:53:00,
2013-03-31 03:02:00,30.0,23.0,30.07,WNW,292,0.0,0.0,75,0.00,,,0.00,,2013-03-31 07:02:00,
2013-03-31 03:12:00,30.0,23.0,30.07,WNW,292,0.0,0.0,75,0.00,,,0.00,,2013-03-31 07:12:00,
2013-03-31 03:22:00,30.0,23.0,30.07,WNW,292,0.0,0.0,75,0.00,,,0.00,,2013-03-31 07:22:00,
2013-03-31 03:33:00,29.0,22.0,30.07,WNW,292,0.0,0.0,75,0.00,,,0.00,,2013-03-31 07:33:00,
2013-03-31 03:43:00,29.0,22.0,30.07,WNW,292,0.0,0.0,75,0.00,,,0.00,,2013-03-31 07:43:00,
2013-03-31 03:53:00,29.0,22.0,30.07,WNW,292,0.0,0.0,75,0.00,,,0.00,,2013-03-31 07:53:00,
2013-03-31 04:02:00,29.0,22.0,30.07,WNW,292,0.0,0.0,76,0.00,,,0.00,,2013-03-31 08:02:00,
2013-03-31 04:12:00,29.0,22.0,30.07,WNW,292,0.0,0.0,76,0.00,,,0.00,,2013-03-31 08:12:00,
2013-03-31 04:22:00,29.0,22.0,30.07,WNW,292,0.0,0.0,76,0.00,,,0.00,,2013-03-31 08:22:00,
2013-03-31 04:32:00,29.0,23.0,30.07,WNW,292,0.0,0.0,77,0.00,,,0.00,,2013-03-31 08:32:00,
2013-03-31 04:42:00,29.0,23.0,30.07,WNW,292,0.0,0.0,77,0.00,,,0.00,,2013-03-31 08:42:00,
2013-03-31 04:52:00,29.0,23.0,30.07,WNW,292,0.0,0.0,77,0.00,,,0.00,,2013-03-31 08:52:00,
2013-03-31 05:02:00,29.0,23.0,30.07,WNW,292,0.0,0.0,77,0.00,,,0.00,,2013-03-31 09:02:00,
2013-03-31 05:12:00,29.0,23.0,30.07,WNW,292,0.0,0.0,77,0.00,,,0.00,,2013-03-31 09:12:00,
2013-03-31 05:22:00,29.0,23.0,30.07,WNW,292,0.0,0.0,77,0.00,,,0.00,,2013-03-31 09:22:00,
2013-03-31 05:33:00,28.0,22.0,30.07,WNW,292,0.0,0.0,78,0.00,,,0.00,,2013-03-31 09:33:00,
2013-03-31 05:42:00,28.0,22.0,30.07,WNW,292,0.0,0.0,78,0.00,,,0.00,,2013-03-31 09:42:00,
2013-03-31 05:53:00,28.0,22.0,30.07,WNW,292,0.0,0.0,78,0.00,,,0.00,,2013-03-31 09:53:00,
2013-03-31 06:03:00,28.0,22.0,30.07,WNW,292,0.0,0.0,78,0.00,,,0.00,,2013-03-31 10:03:00,
2013-03-31 06:13:00,28.0,22.0,30.07,WNW,292,0.0,0.0,78,0.00,,,0.00,,2013-03-31 10:13:00,
2013-03-31 06:24:00,28.0,22.0,30.07,WNW,292,0.0,0.0,78,0.00,,,0.00,,2013-03-31 10:24:00,
2013-03-31 06:33:00,28.0,22.0,30.07,WNW,292,0.0,0.0,78,0.00,,,0.00,,2013-03-31 10:33:00,
2013-03-31 06:42:00,28.0,22.0,30.07,WNW,292,0.0,0.0,78,0.00,,,0.00,,2013-03-31 10:42:00,
2013-03-31 06:53:00,28.0,22.0,30.07,WNW,292,0.0,0.0,78,0.00,,,0.00,,2013-03-31 10:53:00,
2013-03-31 07:03:00,28.0,22.0,30.07,WNW,292,0.0,0.0,79,0.00,,,0.00,,2013-03-31 11:03:00,
2013-03-31 07:12:00,28.0,22.0,30.07,WNW,292,0.0,0.0,79,0.00,,,0.00,,2013-03-31 11:12:00,
2013-03-31 07:23:00,28.0,22.0,30.07,WNW,292,0.0,0.0,79,0.00,,,0.00,,2013-03-31 11:23:00,
2013-03-31 07:33:00,28.0,22.0,30.07,WNW,292,0.0,0.0,79,0.00,,,0.00,,2013-03-31 11:33:00,
2013-03-31 07:42:00,28.0,22.0,30.07,WNW,292,0.0,0.0,79,0.00,,,0.00,,2013-03-31 11:42:00,
2013-03-31 07:53:00,28.0,22.0,30.07,WNW,292,0.0,0.0,79,0.00,,,0.00,,2013-03-31 11:53:00,
2013-03-31 08:03:00,30.0,24.0,30.07,WNW,292,0.0,0.0,79,0.00,,,0.00,,2013-03-31 12:03:00,
2013-03-31 08:12:00,30.0,24.0,30.07,WNW,292,0.0,0.0,79,0.00,,,0.00,,2013-03-31 12:12:00,
2013-03-31 08:22:00,30.0,24.0,30.07,WNW,292,0.0,0.0,79,0.00,,,0.00,,2013-03-31 12:22:00,
2013-03-31 08:33:00,33.0,27.0,30.11,NNW,328,0.0,0.0,78,0.00,,,0.00,,2013-03-31 12:33:00,
2013-03-31 08:42:00,33.0,27.0,30.11,NNW,328,0.0,0.0,78,0.00,,,0.00,,2013-03-31 12:42:00,
2013-03-31 08:53:00,33.0,27.0,30.11,NNW,328,0.0,0.0,78,0.00,,,0.00,,2013-03-31 12:53:00,
2013-03-31 09:02:00,37.0,29.0,30.13,ENE,66,0.0,0.0,73,0.00,,,0.00,,2013-03-31 13:02:00,
2013-03-31 09:12:00,37.0,29.0,30.13,ENE,66,0.0,0.0,73,0.00,,,0.00,,2013-03-31 13:12:00,
2013-03-31 09:23:00,37.0,29.0,30.13,ENE,66,0.0,0.0,73,0.00,,,0.00,,2013-03-31 13:23:00,
2013-03-31 09:32:00,38.0,29.0,30.14,SSE,158,0.0,0.0,71,0.00,,,0.00,,2013-03-31 13:32:00,
2013-03-31 09:42:00,38.0,29.0,30.14,SSE,158,0.0,0.0,71,0.00,,,0.00,,2013-03-31 13:42:00,
2013-03-31 09:53:00,38.0,29.0,30.14,SSE,158,0.0,0.0,71,0.00,,,0.00,,2013-03-31 13:53:00,
2013-03-31 10:03:00,38.0,29.0,30.14,SSE,158,0.0,0.0,71,0.00,,,0.00,,2013-03-31 14:03:00,
2013-03-31 10:12:00,38.0,29.0,30.14,SSE,158,0.0,0.0,71,0.00,,,0.00,,2013-03-31 14:12:00,
2013-03-31 10:22:00,38.0,29.0,30.14,SSE,158,0.0,0.0,71,0.00,,,0.00,,2013-03-31 14:22:00,
2013-03-31 10:33:00,38.0,29.0,30.14,SSE,158,0.0,0.0,71,0.00,,,0.00,,2013-03-31 14:33:00,
2013-03-31 10:43:00,38.0,29.0,30.14,SSE,158,0.0,0.0,71,0.00,,,0.00,,2013-03-31 14:43:00,
2013-03-31 10:53:00,38.0,29.0,30.14,SSE,158,0.0,0.0,71,0.00,,,0.00,,2013-03-31 14:53:00,
2013-03-31 11:03:00,38.0,29.0,30.14,SSE,158,0.0,0.0,71,0.00,,,0.00,,2013-03-31 15:03:00,
2013-03-31 11:13:00,38.0,29.0,30.14,SSE,158,0.0,0.0,71,0.00,,,0.00,,2013-03-31 15:13:00,
2013-03-31 11:23:00,38.0,29.0,30.14,SSE,158,0.0,0.0,71,0.00,,,0.00,,2013-03-31 15:23:00,
2013-03-31 11:34:00,38.0,29.0,30.14,SSE,158,0.0,0.0,71,0.00,,,0.00,,2013-03-31 15:34:00,
2013-03-31 11:43:00,38.0,29.0,30.14,SSE,158,0.0,0.0,71,0.00,,,0.00,,2013-03-31 15:43:00,
2013-03-31 11:54:00,38.0,29.0,30.14,SSE,158,0.0,0.0,71,0.00,,,0.00,,2013-03-31 15:54:00,
2013-03-31 12:03:00,38.0,29.0,30.14,SSE,158,0.0,0.0,71,0.00,,,0.00,,2013-03-31 16:03:00,
2013-03-31 12:13:00,38.0,29.0,30.14,SSE,158,0.0,0.0,71,0.00,,,0.00,,2013-03-31 16:13:00,
2013-03-31 12:23:00,38.0,29.0,30.14,SSE,158,0.0,0.0,71,0.00,,,0.00,,2013-03-31 16:23:00,
2013-03-31 12:33:00,38.0,29.0,30.14,SSE,158,0.0,0.0,71,0.00,,,0.00,,2013-03-31 16:33:00,
2013-03-31 12:43:00,38.0,29.0,30.14,SSE,158,0.0,0.0,71,0.00,,,0.00,,2013-03-31 16:43:00,
2013-03-31 12:54:00,38.0,29.0,30.14,SSE,158,0.0,0.0,71,0.00,,,0.00,,2013-03-31 16:54:00,
2013-03-31 13:03:00,38.0,29.0,30.14,SSE,158,0.0,0.0,71,0.00,,,0.00,,2013-03-31 17:03:00,
2013-03-31 13:13:00,38.0,29.0,30.14,SSE,158,0.0,0.0,71,0.00,,,0.00,,2013-03-31 17:13:00,
2013-03-31 13:23:00,38.0,29.0,30.14,SSE,158,0.0,0.0,71,0.00,,,0.00,,2013-03-31 17:23:00,
2013-03-31 13:32:00,38.0,29.0,30.14,SSE,158,0.0,0.0,71,0.00,,,0.00,,2013-03-31 17:32:00,
2013-03-31 13:43:00,38.0,29.0,30.14,SSE,158,0.0,0.0,71,0.00,,,0.00,,2013-03-31 17:43:00,
2013-03-31 13:52:00,38.0,29.0,30.14,SSE,158,0.0,0.0,71,0.00,,,0.00,,2013-03-31 17:52:00,
2013-03-31 14:03:00,38.0,29.0,30.14,SSE,158,0.0,0.0,71,0.00,,,0.00,,2013-03-31 18:03:00,
2013-03-31 14:13:00,38.0,29.0,30.14,SSE,158,0.0,0.0,71,0.00,,,0.00,,2013-03-31 18:13:00,
2013-03-31 14:22:00,38.0,29.0,30.14,SSE,158,0.0,0.0,71,0.00,,,0.00,,2013-03-31 18:22:00,
2013-03-31 14:33:00,38.0,29.0,30.14,SSE,158,0.0,0.0,71,0.00,,,0.00,,2013-03-31 18:33:00,
2013-03-31 14:42:00,38.0,29.0,30.14,SSE,158,0.0,0.0,71,0.00,,,0.00,,2013-03-31 18:42:00,
2013-03-31 14:53:00,38.0,29.0,30.14,SSE,158,0.0,0.0,71,0.00,,,0.00,,2013-03-31 18:53:00,
2013-03-31 15:03:00,38.0,29.0,30.14,SSE,158,0.0,0.0,71,0.00,,,0.00,,2013-03-31 19:03:00,
2013-03-31 15:12:00,38.0,29.0,30.14,SSE,158,0.0,0.0,71,0.00,,,0.00,,2013-03-31 19:12:00,
2013-03-31 15:22:00,38.0,29.0,30.14,SSE,158,0.0,0.0,71,0.00,,,0.00,,2013-03-31 19:22:00,
2013-03-31 15:33:00,38.0,29.0,30.14,SSE,158,0.0,0.0,71,0.00,,,0.00,,2013-03-31 19:33:00,
2013-03-31 15:43:00,38.0,29.0,30.14,SSE,158,0.0,0.0,71,0.00,,,0.00,,2013-03-31 19:43:00,
2013-03-31 15:54:00,38.0,29.0,30.14,SSE,158,0.0,0.0,71,0.00,,,0.00,,2013-03-31 19:54:00,
2013-03-31 16:03:00,38.0,29.0,30.14,SSE,158,0.0,0.0,71,0.00,,,0.00,,2013-03-31 20:03:00,
2013-03-31 16:13:00,38.0,29.0,30.14,SSE,158,0.0,0.0,71,0.00,,,0.00,,2013-03-31 20:13:00,
2013-03-31 16:23:00,38.0,29.0,30.14,SSE,158,0.0,0.0,71,0.00,,,0.00,,2013-03-31 20:23:00,
2013-03-31 16:43:00,38.0,29.0,30.14,SSE,158,0.0,0.0,71,0.00,,,0.00,,2013-03-31 20:43:00,
2013-03-31 16:53:00,38.0,29.0,30.14,SSE,158,0.0,0.0,71,0.00,,,0.00,,2013-03-31 20:53:00,
2013-03-31 17:03:00,38.0,29.0,30.14,SSE,158,0.0,0.0,71,0.00,,,0.00,,2013-03-31 21:03:00,
2013-03-31 17:13:00,38.0,29.0,30.14,SSE,158,0.0,0.0,71,0.00,,,0.00,,2013-03-31 21:13:00,
2013-03-31 17:22:00,38.0,29.0,30.14,SSE,158,0.0,0.0,71,0.00,,,0.00,,2013-03-31 21:22:00,
2013-03-31 17:34:00,38.0,29.0,30.14,SSE,158,0.0,0.0,71,0.00,,,0.00,,2013-03-31 21:34:00,
2013-03-31 17:43:00,38.0,29.0,30.14,SSE,158,0.0,0.0,71,0.00,,,0.00,,2013-03-31 21:43:00,
2013-03-31 17:54:00,38.0,29.0,30.14,SSE,158,0.0,0.0,71,0.00,,,0.00,,2013-03-31 21:54:00,
2013-03-31 18:04:00,38.0,29.0,30.14,SSE,158,0.0,0.0,71,0.00,,,0.00,,2013-03-31 22:04:00,
2013-03-31 18:13:00,38.0,29.0,30.14,SSE,158,0.0,0.0,71,0.00,,,0.00,,2013-03-31 22:13:00,
2013-03-31 18:24:00,38.0,29.0,30.14,SSE,158,0.0,0.0,71,0.00,,,0.00,,2013-03-31 22:24:00,
2013-03-31 18:33:00,38.0,29.0,30.14,SSE,158,0.0,0.0,71,0.00,,,0.00,,2013-03-31 22:33:00,
2013-03-31 18:43:00,38.0,29.0,30.14,SSE,158,0.0,0.0,71,0.00,,,0.00,,2013-03-31 22:43:00,
2013-03-31 18:53:00,38.0,29.0,30.14,SSE,158,0.0,0.0,71,0.00,,,0.00,,2013-03-31 22:53:00,
2013-03-31 19:03:00,38.0,29.0,30.14,SSE,158,0.0,0.0,71,0.00,,,0.00,,2013-03-31 23:03:00,
2013-03-31 19:13:00,38.0,29.0,30.14,SSE,158,0.0,0.0,71,0.00,,,0.00,,2013-03-31 23:13:00,
2013-03-31 19:22:00,38.0,29.0,30.14,SSE,158,0.0,0.0,71,0.00,,,0.00,,2013-03-31 23:22:00,
2013-03-31 19:33:00,38.0,29.0,30.14,SSE,158,0.0,0.0,71,0.00,,,0.00,,2013-03-31 23:33:00,
2013-03-31 19:43:00,38.0,29.0,30.14,SSE,158,0.0,0.0,71,0.00,,,0.00,,2013-03-31 23:43:00,
2013-03-31 19:54:00,38.0,29.0,30.14,SSE,158,0.0,0.0,71,0.00,,,0.00,,2013-03-31 23:54:00,
2013-03-31 20:03:00,38.0,29.0,30.14,SSE,158,0.0,0.0,71,0.00,,,0.00,,2013-04-01 00:03:00,
2013-03-31 20:13:00,38.0,29.0,30.14,SSE,158,0.0,0.0,71,0.00,,,0.00,,2013-04-01 00:13:00,
2013-03-31 20:22:00,38.0,29.0,30.14,SSE,158,0.0,0.0,71,0.00,,,0.00,,2013-04-01 00:22:00,
2013-03-31 20:32:00,38.0,29.0,30.14,SSE,158,0.0,0.0,71,0.00,,,0.00,,2013-04-01 00:32:00,
2013-03-31 20:43:00,38.0,29.0,30.14,SSE,158,0.0,0.0,71,0.00,,,0.00,,2013-04-01 00:43:00,
2013-03-31 20:53:00,38.0,29.0,30.14,SSE,158,0.0,0.0,71,0.00,,,0.00,,2013-04-01 00:53:00,
2013-03-31 21:03:00,38.0,29.0,30.14,SSE,158,0.0,0.0,71,0.00,,,0.00,,2013-04-01 01:03:00,
2013-03-31 21:13:00,38.0,29.0,30.14,SSE,158,0.0,0.0,71,0.00,,,0.00,,2013-04-01 01:13:00,
2013-03-31 21:23:00,38.0,29.0,30.14,SSE,158,0.0,0.0,71,0.00,,,0.00,,2013-04-01 01:23:00,
2013-03-31 21:33:00,38.0,29.0,30.14,SSE,158,0.0,0.0,71,0.00,,,0.00,,2013-04-01 01:33:00,
2013-03-31 21:42:00,38.0,29.0,30.14,SSE,158,0.0,0.0,71,0.00,,,0.00,,2013-04-01 01:42:00,
2013-03-31 21:53:00,38.0,29.0,30.14,SSE,158,0.0,0.0,71,0.00,,,0.00,,2013-04-01 01:53:00,
2013-03-31 22:03:00,38.0,29.0,30.14,SSE,158,0.0,0.0,71,0.00,,,0.00,,2013-04-01 02:03:00,
2013-03-31 22:13:00,38.0,29.0,30.14,SSE,158,0.0,0.0,71,0.00,,,0.00,,2013-04-01 02:13:00,
2013-03-31 22:23:00,38.0,29.0,30.14,SSE,158,0.0,0.0,71,0.00,,,0.00,,2013-04-01 02:23:00,
2013-03-31 22:33:00,38.0,29.0,30.14,SSE,158,0.0,0.0,71,0.00,,,0.00,,2013-04-01 02:33:00,
2013-03-31 22:42:00,38.0,29.0,30.14,SSE,158,0.0,0.0,71,0.00,,,0.00,,2013-04-01 02:42:00,
2013-03-31 22:53:00,38.0,29.0,30.14,SSE,158,0.0,0.0,71,0.00,,,0.00,,2013-04-01 02:53:00,
2013-03-31 23:03:00,38.0,29.0,30.14,SSE,158,0.0,0.0,71,0.00,,,0.00,,2013-04-01 03:03:00,
2013-03-31 23:12:00,38.0,29.0,30.14,SSE,158,0.0,0.0,71,0.00,,,0.00,,2013-04-01 03:12:00,
2013-03-31 23:23:00,38.0,29.0,30.14,SSE,158,0.0,0.0,71,0.00,,,0.00,,2013-04-01 03:23:00,
2013-03-31 23:34:00,38.0,29.0,30.14,SSE,158,0.0,0.0,71,0.00,,,0.00,,2013-04-01 03:34:00,
2013-03-31 23:43:00,38.0,29.0,30.14,SSE,158,0.0,0.0,71,0.00,,,0.00,,2013-04-01 03:43:00,
2013-03-31 23:53:00,38.0,29.0,30.14,SSE,158,0.0,0.0,71,0.00,,,0.00,,2013-04-01 03:53:00,